www.pogodaiklimat.ru
ПОГОДА в Майами
Время
и дата
08:53 18.01
09:53 18.01
10:53 18.01
11:53 18.01
12:53 18.01
13:53 18.01
14:53 18.01
15:53 18.01
16:53 18.01
17:53 18.01
18:53 18.01
19:53 18.01
20:53 18.01
21:53 18.01
22:53 18.01
23:53 18.01
00:53 19.01
01:53 19.01
02:53 19.01
03:53 19.01
04:53 19.01
05:53 19.01
06:53 19.01
07:53 19.01
08:53 19.01
09:53 19.01
10:53 19.01
11:53 19.01
12:53 19.01
13:53 19.01
14:53 19.01
15:53 19.01
16:53 19.01
17:53 19.01
18:53 19.01
19:53 19.01
20:53 19.01
21:53 19.01
22:53 19.01
23:53 19.01
00:53 20.01
01:53 20.01
02:53 20.01
03:53 20.01
04:53 20.01
05:40 20.01
05:53 20.01
06:09 20.01
Ветер
(напр.,м/с)
Видим. Явления Облачность Т
(С)
Тd
(С)
f
(%)
Тe
(С)
Тes
(С)
Комфортность P
(гПа)
Po
(гПа)
Тmin
(С)
Tmax
(С)
R
(мм)
R24
(мм)
S
(см)
В 1 16 км ясно +14.4 +11.1 81 +14 +15 1022.4 1021.9
С 2 16 км ясно +16.7 +8.9 60 +16 +18 1022.7 1022.2
С 2
{4}
16 км ясно +17.8 +8.3 54 +18 +22 1022.4 1022.2
С 2 16 км ясно +18.9 +7.8 48 +19 +24 1021.9 1021.5
СВ 2 16 км ясно +19.4 +6.1 42 +20 +27 1021.1 1020.9 +10.0 +19.4
С 1 16 км ясно +20.0 +4.4 36 +21 +31 комфорт 1020.4 1019.8
штиль 0 16 км ясно +20.6 +3.9 33 +21 +32 комфорт 1019.9 1019.5
СВ 1 16 км ясно +20.0 +2.2 31 +21 +25 комфорт 1020.0 1019.5
В 1 16 км ясно +19.4 +6.1 42 +21 +23 комфорт 1020.3 1019.8
В 1 16 км ясно +16.1 +6.7 54 +16 +16 1021.2 1020.9
В 1 16 км ясно +16.7 +6.1 50 +17 +17 1021.8 1021.5 +15.6 +20.6
штиль 0 16 км ясно +12.8 +6.7 66 +12 +12 1022.2 1021.9
СЗ 1 16 км ясно +10.6 +6.7 77 +9 +9 1022.4 1022.2
штиль 0 16 км ясно +11.1 +7.8 80 +11 +11 1022.7 1022.2
С 2 16 км ясно +13.3 +8.3 72 +12 +12 1022.5 1022.2
С 1 16 км 2/2 1350 м +12.8 +8.3 74 +11 +11 1021.9 1021.5
штиль 0 16 км ясно +12.2 +8.9 80 +12 +12 1022.2 1021.9 +10.0 +16.7
СЗ 1 16 км ясно +9.4 +8.3 93 +8 +8 1021.6 1021.2
С 1 16 км 10/10 1290 м +12.8 +10.6 86 +12 +12 1021.6 1021.2
СЗ 1 16 км 8/8 1350 м +13.3 +8.9 75 +13 +13 1021.6 1021.2
штиль 0 16 км 5/5 1350 м +10.0 +7.8 86 +9 +9 1021.5 1021.2
штиль 0 16 км 5/5 1350 м +11.1 +9.4 89 +10 +10 1021.7 1021.5
С 1 16 км 5/5 1350 м +11.7 +10.0 89 +11 +11 1022.0 1021.5 +9.4 +13.9
З 1 16 км 8/8 1380 м +11.7 +10.6 93 +10 +10 1022.5 1022.2
СВ 1 16 км слабый дождь 5/5 1380 м +16.1 +13.9 87 +16 +17 1023.0 1022.5
СВ 1 16 км 2/2 1380 м +20.0 +13.9 68 +23 +25 комфорт 1023.4 1022.9
ЮВ 2 16 км 8/8 1410 м +22.2 +12.2 53 +25 +25 комфорт 1023.1 1022.5
ЮВ 2 16 км 10/10 1410 м +22.8 +12.8 53 +26 +26 жарко 1022.5 1022.2
В 2 16 км 8/8 1380 м +23.3 +12.2 50 +26 +27 жарко 1021.5 1021.2 +9.4 +24.4
В 2 16 км 10/10 1500 м +22.8 +13.3 55 +26 +26 жарко 1020.6 1020.2
В 2 16 км 10/10 1650 м +22.8 +13.9 57 +26 +26 жарко 1020.6 1020.2
В 2 16 км 2/2 1650 м +23.3 +14.4 57 +27 +29 душно 1020.3 1019.8
В 2 16 км 8/8 1050 м +21.7 +14.4 63 +25 +25 комфорт 1020.5 1020.2
В 1 16 км 2/2 1800 м +19.4 +13.9 70 +21 +21 комфорт 1020.5 1020.2
штиль 0 16 км 10/10 1800 м +20.0 +14.4 70 +22 +22 комфорт 1020.8 1020.5 +19.4 +23.9
В 1 16 км 8/8 1950 м +18.3 +14.4 78 +19 +19 1020.8 1020.5
В 1 16 км 5/5 1950 м +19.4 +15.0 76 +22 +22 комфорт 1020.8 1020.5
штиль 0 16 км ясно +17.2 +14.4 84 +17 +17 1020.7 1020.2
штиль 0 16 км 5/0 2250 м
[Ac]
+15.6 +13.9 90 +15 +15 1020.9 1020.5
штиль 0 16 км ясно +16.7 +15.0 90 +17 +17 1020.3 1019.8
штиль 0 16 км 10/0 2400 м
[Ac]
+16.7 +15.0 90 +17 +17 1019.9 1019.5 +15.6 +20.6
штиль 0 16 км 10/2 1800 м
[Ac]
+18.3 +15.0 81 +19 +19 1019.4 1019.2
СВ 1 16 км 2/2 870 м +17.2 +15.0 87 +18 +18 1019.0 1018.5
СВ 1 16 км 5/2 750 м
[Ac]
+16.7 +15.0 90 +17 +17 1018.9 1018.5
штиль 0 16 км 10/10 750 м +17.8 +16.1 90 +18 +18 1018.9 1018.5
В 1 16 км 10/8 810 м
[Ac]
+17.2 +16.1 93 +18 +18 1018.1
штиль 0 16 км 10/8 810 м
[Ac]
+17.8 +16.7 93 +18 +18 1018.8 1018.5
СВ 1 16 км 10/5 810 м
[Ac]
+18.3 +16.7 90 +19 +19 1018.5
Местоположение метеостанции Kendall-Tamiami Executive Airport: широта 25.6419 долгота -80.4347 высота над уровнем моря 3 м.
В архиве по умолчанию представлена погода в Майами за последние 1-2 суток. Обновление информации о фактической погоде в базе происходит ежечасно! Архивные данные за месяц целиком и за предыдущие месяцы Вы можете получить, выбрав интересующий диапазон дат из раскрывающегося списка и нажав кнопку "Ввод!".
Внимание! Архив погоды МЕТАР в базе сайта по станциям, не включенным в климатический монитор, хранится не более 60 дней. Нет смысла пытаться выбрать более раннюю дату.
*Определитесь, кто Вы:
Внимание! Время в таблицах - местное (без учета летнего времени). Для получения всемирного времени необходимо вычесть поправку, которая равна -5 ч.
Смотрите также архив погоды в соседних городах и на ближайших метеорологических станциях:
Партнеры нашего сайта:      
Пояснения к столбцам:
  • Ветер - указаны скорость ветра в м/с - средняя за 10 мин, порывы в срок и между сроками (в фигурных скобках) и направление, откуда дует ветер: С - северный,
  • СВ - северо-восточный, В - восточный, ЮВ - юго-восточный, Ю - южный, ЮЗ - юго-западный, З - западный, СЗ - северо-западный.
  • Видимость - горизонтальная дальность видимости в метрах или километрах. При видимости от 1 до 10 км при отсутствии осадков обычно наблюдается дымка, при ухудшении видимости до 1 км и менее - туман. В сухую погоду видимость может ухудшаться дымом, пылью или мглою.
  • Явления - указаны атмосферные явления, наблюдавшиеся в срок или в последний час перед сроком; фигурными скобками обозначены явления, наблюдавшиеся между сроками (за 1-3 часа до срока); квадратными скобками обозначены град или гололедные отложения с указанием их диаметра в мм.
  • Облачность - указаны через наклонную черту общая и нижняя облачность в баллах и высота нижней границы облаков в метрах; квадратными скобками обозначены формы облаков: Ci - перистые, Cs - перисто-слоистые, Cc - перисто-кучевые, Ac - высококучевые, As - высокослоистые, Sc - слоисто-кучевые, Ns - слоисто-дождевые, Cu - кучевые, Cb - кучево-дождевые. Подробнее классификацию облаков см. в Атласе облаков (PDF).
  • T - Температура воздуха - температура, измеренная на высоте 2 м над землей.
  • Td - Температура точки росы - температура, при понижении до которой содержащийся в воздухе водяной пар достигнет насыщения.
  • f - Относительная влажность воздуха - влажноcть воздуха, измеренная на высоте 2 м над землей.
  • Te - Эффективная температура - температура, которую ощущает одетый по сезону человек в тени. Характеристика душности погоды. При расчете учитывается влияние влажности воздуха и скорости ветра на теплоощущения человека.
  • Tes - Эффективная температура на солнце - температура, которую ощущает человек, с поправкой на солнечный нагрев. Характеристика знойности погоды. Зависит от высоты солнца над горизонтом, облачности и скорости ветра. Ночью, в пасмурную погоду, а также при ветре 12 м/с и более поправка равна нулю.
  • P - Атмосферное давление - приведенное к уровню моря атмосферное давление.
  • Po - Атмосферное давление - измеренное на уровне метеостанции атмосферное давление.
  • Tmin - Минимальная температура - минимум температуры воздуха на высоте 2 м над землей.
  • Tmax - Максимальная температура - максимум температуры воздуха на высоте 2 м над землей.
  • R - Количество осадков - Количество выпавших осадков за период времени, мм. При наведении курсора мыши на число - период времени, за который выпало указанное количество осадков.
  • R24 - Количество осадков - Количество выпавших осадков за 24 часа, мм.
  • S - Снежный покров - Высота снежного покрова, см. При наведении курсора мыши на число - состояние снежного покрова и степень покрытия местности в баллах.